^^
Datos históricos de la estación: Murcia-Puente Tocinos
Diario Informe para Junio 19, 2019 Unidades:  Métrico    Inglés   Ambas
Diario Semanal Mensual Anual Configurable
  Máximo: Mínimo: Media:
Temperatura: 33.4 °C 19.6 °C 26.4 °C
Punto de rocio: 18.1 °C 8.4 °C 13.8 °C
Humedad: 85% 23% 52%
Velocidad viento: 19.8km/h 0.0km/h 8.6km/h
Racha viento: 32.3km/h - -
Viento- - SSE
Presión: 1012.9 hPa 1008.7 hPa -
Precipitación: 0.0 mm    
Historical Graphs
 
 
Tabla de datos para Junio 19, 2019
Hora Temperatura Punto de rocio Presión Viento Velocidad viento Racha viento Humedad Intensidad lluvia(por hora) Nubes
00:04 21.4 °C 17.4 °C 1012.7 hPa NNE 8.4 km/h 9.3 km/h 78% 0.0 mm CLR
00:09 21.4 °C 17.6 °C 1012.7 hPa NNE 6.4 km/h 13.0 km/h 79% 0.0 mm CLR
00:14 21.3 °C 17.5 °C 1012.7 hPa NNE 6.4 km/h 10.0 km/h 79% 0.0 mm CLR
00:19 21.3 °C 17.5 °C 1012.9 hPa NNE 6.9 km/h 9.3 km/h 79% 0.0 mm CLR
00:24 21.2 °C 17.6 °C 1012.9 hPa NE 6.9 km/h 8.4 km/h 80% 0.0 mm CLR
00:29 21.2 °C 17.8 °C 1012.9 hPa NE 6.9 km/h 11.1 km/h 81% 0.0 mm CLR
00:34 21.1 °C 17.7 °C 1012.8 hPa NE 6.9 km/h 11.1 km/h 81% 0.0 mm CLR
00:39 21.1 °C 17.7 °C 1012.8 hPa NNE 8.4 km/h 10.0 km/h 81% 0.0 mm CLR
00:44 21.0 °C 17.8 °C 1012.8 hPa NE 8.4 km/h 13.0 km/h 82% 0.0 mm CLR
00:49 20.9 °C 17.7 °C 1012.6 hPa North 6.4 km/h 10.0 km/h 82% 0.0 mm CLR
00:54 20.9 °C 17.7 °C 1012.6 hPa NE 6.4 km/h 9.3 km/h 82% 0.0 mm CLR
00:59 20.9 °C 17.7 °C 1012.6 hPa NNE 5.8 km/h 10.0 km/h 82% 0.0 mm CLR
01:04 20.9 °C 17.7 °C 1012.6 hPa North 5.8 km/h 9.3 km/h 82% 0.0 mm CLR
01:09 20.8 °C 17.8 °C 1012.6 hPa NE 5.8 km/h 7.4 km/h 83% 0.0 mm CLR
01:14 20.7 °C 17.7 °C 1012.6 hPa NNE 5.8 km/h 7.6 km/h 83% 0.0 mm CLR
01:19 20.7 °C 17.7 °C 1012.5 hPa NNE 5.0 km/h 7.4 km/h 83% 0.0 mm CLR
01:24 20.6 °C 17.8 °C 1012.5 hPa NNE 5.0 km/h 7.4 km/h 84% 0.0 mm CLR
01:29 20.6 °C 17.8 °C 1012.5 hPa NE 3.2 km/h 5.0 km/h 84% 0.0 mm CLR
01:34 20.6 °C 17.8 °C 1012.4 hPa NE 3.2 km/h   84% 0.0 mm CLR
01:39 20.6 °C 17.8 °C 1012.4 hPa NNE 2.3 km/h 3.7 km/h 84% 0.0 mm CLR
01:44 20.6 °C 17.8 °C 1012.4 hPa NNE 2.3 km/h   84% 0.0 mm CLR
01:49 20.6 °C 17.8 °C 1012.5 hPa Calm   5.0 km/h 84% 0.0 mm CLR
01:54 20.6 °C 17.8 °C 1012.5 hPa Calm   3.9 km/h 84% 0.0 mm CLR
01:59 20.6 °C 17.8 °C 1012.5 hPa NW 2.9 km/h 5.6 km/h 84% 0.0 mm CLR
02:04 20.6 °C 17.8 °C 1012.4 hPa NW 2.9 km/h 5.6 km/h 84% 0.0 mm CLR
02:09 20.6 °C 17.8 °C 1012.4 hPa NW 2.9 km/h 3.2 km/h 84% 0.0 mm CLR
02:14 20.6 °C 17.8 °C 1012.4 hPa NW 2.9 km/h 3.7 km/h 84% 0.0 mm CLR
02:19 20.6 °C 17.8 °C 1012.4 hPa Calm   2.3 km/h 84% 0.0 mm CLR
02:24 20.6 °C 17.8 °C 1012.4 hPa Calm     84% 0.0 mm CLR
02:29 20.6 °C 17.8 °C 1012.4 hPa Calm     84% 0.0 mm CLR
02:34 20.6 °C 17.8 °C 1012.3 hPa Calm     84% 0.0 mm CLR
02:39 20.6 °C 17.8 °C 1012.3 hPa Calm     84% 0.0 mm CLR
02:44 20.5 °C 17.9 °C 1012.3 hPa Calm     85% 0.0 mm CLR
02:49 20.5 °C 17.7 °C 1012.1 hPa Calm   5.6 km/h 84% 0.0 mm CLR
02:54 20.5 °C 17.5 °C 1012.1 hPa Calm   6.9 km/h 83% 0.0 mm CLR
02:59 20.4 °C 17.2 °C 1012.1 hPa SSW 4.7 km/h 9.3 km/h 82% 0.0 mm CLR
03:04 20.5 °C 16.6 °C 1012.1 hPa WSW 4.7 km/h 11.1 km/h 78% 0.0 mm CLR
03:09 20.6 °C 16.4 °C 1012.1 hPa SSW 6.9 km/h 11.1 km/h 77% 0.0 mm CLR
03:14 20.7 °C 16.5 °C 1012.1 hPa SSW 6.9 km/h 10.3 km/h 77% 0.0 mm CLR
03:19 20.7 °C 16.5 °C 1012.1 hPa SW 6.9 km/h 7.4 km/h 77% 0.0 mm CLR
03:24 20.7 °C 16.5 °C 1012.1 hPa SSW 6.9 km/h 9.3 km/h 77% 0.0 mm CLR
03:29 20.7 °C 16.7 °C 1012.1 hPa WSW 5.8 km/h 8.4 km/h 78% 0.0 mm CLR
03:34 20.6 °C 16.8 °C 1012.0 hPa WSW 5.8 km/h 7.4 km/h 79% 0.0 mm CLR
03:39 20.6 °C 16.8 °C 1012.0 hPa SSE 5.8 km/h 11.1 km/h 79% 0.0 mm CLR
03:44 20.5 °C 16.9 °C 1012.0 hPa SW 5.8 km/h 7.4 km/h 80% 0.0 mm CLR
03:49 20.4 °C 16.8 °C 1011.9 hPa WSW 6.4 km/h 7.6 km/h 80% 0.0 mm CLR
03:54 20.4 °C 16.8 °C 1011.9 hPa WSW 6.4 km/h 9.3 km/h 80% 0.0 mm CLR
03:59 20.4 °C 16.8 °C 1011.9 hPa WSW 6.4 km/h 8.4 km/h 80% 0.0 mm CLR
04:04 20.4 °C 16.8 °C 1012.0 hPa WSW 6.4 km/h 13.0 km/h 80% 0.0 mm CLR
04:09 20.4 °C 17.1 °C 1012.0 hPa WSW 6.4 km/h 11.1 km/h 81% 0.0 mm CLR
04:14 20.4 °C 17.1 °C 1012.0 hPa SW 6.4 km/h 16.7 km/h 81% 0.0 mm CLR
04:19 20.3 °C 17.1 °C 1011.8 hPa SW 6.9 km/h 16.1 km/h 82% 0.0 mm CLR
04:24 20.2 °C 17.0 °C 1011.8 hPa WSW 6.9 km/h 11.1 km/h 82% 0.0 mm CLR
04:29 20.2 °C 17.2 °C 1011.8 hPa WSW 8.7 km/h 13.0 km/h 83% 0.0 mm CLR
04:34 20.1 °C 17.1 °C 1011.7 hPa West 8.7 km/h 14.8 km/h 83% 0.0 mm CLR
04:39 20.1 °C 17.1 °C 1011.7 hPa WSW 9.5 km/h 9.3 km/h 83% 0.0 mm CLR
04:44 20.1 °C 17.1 °C 1011.7 hPa SW 9.5 km/h 9.3 km/h 83% 0.0 mm CLR
04:49 20.2 °C 17.2 °C 1011.8 hPa WNW 6.9 km/h 9.3 km/h 83% 0.0 mm CLR
04:54 20.1 °C 17.1 °C 1011.8 hPa SW 6.9 km/h 11.1 km/h 83% 0.0 mm CLR
04:59 20.1 °C 17.1 °C 1011.8 hPa SW 6.9 km/h 7.6 km/h 83% 0.0 mm CLR
05:04 20.1 °C 17.1 °C 1011.8 hPa SW 6.9 km/h 10.0 km/h 83% 0.0 mm CLR
05:09 20.1 °C 16.9 °C 1011.8 hPa SSW 5.8 km/h 11.1 km/h 82% 0.0 mm CLR
05:14 20.1 °C 17.1 °C 1011.8 hPa SW 5.8 km/h 5.6 km/h 83% 0.0 mm CLR
05:19 20.0 °C 16.8 °C 1011.8 hPa SW 5.0 km/h 11.9 km/h 82% 0.0 mm CLR
05:24 19.9 °C 16.7 °C 1011.8 hPa SSW 5.0 km/h 11.1 km/h 82% 0.0 mm CLR
05:29 19.9 °C 16.6 °C 1011.8 hPa SW 8.4 km/h 10.3 km/h 81% 0.0 mm CLR
05:34 19.9 °C 16.6 °C 1011.8 hPa South 8.4 km/h 8.4 km/h 81% 0.0 mm CLR
05:39 19.9 °C 16.3 °C 1011.8 hPa South 6.9 km/h 10.3 km/h 80% 0.0 mm CLR
05:44 19.9 °C 16.6 °C 1011.8 hPa SSW 6.9 km/h 11.1 km/h 81% 0.0 mm CLR
05:49 19.9 °C 16.7 °C 1011.8 hPa SSW 8.4 km/h 11.1 km/h 82% 0.0 mm CLR
05:54 19.9 °C 16.7 °C 1011.8 hPa SSW 8.4 km/h 9.3 km/h 82% 0.0 mm CLR
05:59 19.8 °C 16.6 °C 1011.8 hPa SSW 6.9 km/h 9.3 km/h 82% 0.0 mm CLR
06:04 19.8 °C 16.6 °C 1011.9 hPa SW 6.9 km/h 13.0 km/h 82% 0.0 mm CLR
06:09 19.7 °C 16.6 °C 1011.9 hPa WSW 8.4 km/h 11.1 km/h 82% 0.0 mm CLR
06:14 19.7 °C 16.6 °C 1011.9 hPa SW 8.4 km/h 9.3 km/h 82% 0.0 mm CLR
06:19 19.7 °C 16.6 °C 1011.9 hPa WSW 7.6 km/h 13.0 km/h 82% 0.0 mm CLR
06:24 19.7 °C 16.6 °C 1011.9 hPa SW 7.6 km/h 9.3 km/h 82% 0.0 mm CLR
06:29 19.7 °C 16.6 °C 1011.9 hPa SSW 6.9 km/h 11.1 km/h 82% 0.0 mm CLR
06:34 19.7 °C 16.3 °C 1011.9 hPa SW 6.9 km/h 9.3 km/h 81% 0.0 mm CLR
06:39 19.6 °C 16.1 °C 1011.9 hPa SW 6.9 km/h 13.0 km/h 80% 0.0 mm CLR
06:44 19.6 °C 16.1 °C 1011.9 hPa WSW 6.9 km/h 11.1 km/h 80% 0.0 mm CLR
06:49 19.7 °C 15.9 °C 1011.8 hPa WSW 8.4 km/h 13.0 km/h 79% 0.0 mm CLR
06:54 19.7 °C 15.9 °C 1011.8 hPa West 8.4 km/h 11.9 km/h 79% 0.0 mm CLR
06:59 19.7 °C 15.9 °C 1011.8 hPa SW 6.4 km/h 8.7 km/h 79% 0.0 mm CLR
07:04 19.7 °C 15.6 °C 1011.8 hPa WNW 6.4 km/h 9.3 km/h 77% 0.0 mm CLR
07:09 19.8 °C 15.7 °C 1011.8 hPa WSW 6.9 km/h 11.1 km/h 77% 0.0 mm CLR
07:14 19.8 °C 15.7 °C 1011.8 hPa SW 6.9 km/h 9.3 km/h 77% 0.0 mm CLR
07:19 19.9 °C 15.7 °C 1011.9 hPa SW 6.4 km/h 3.9 km/h 77% 0.0 mm CLR
07:24 19.9 °C 15.7 °C 1011.9 hPa WSW 6.4 km/h 11.1 km/h 77% 0.0 mm CLR
07:29 20.1 °C 15.7 °C 1011.9 hPa SW 5.0 km/h 8.4 km/h 76% 0.0 mm CLR
07:34 20.1 °C 15.7 °C 1011.9 hPa WSW 5.0 km/h 14.8 km/h 76% 0.0 mm CLR
07:39 20.2 °C 15.6 °C 1011.9 hPa South 7.6 km/h 9.3 km/h 75% 0.0 mm CLR
07:44 20.3 °C 15.7 °C 1011.9 hPa SSW 7.6 km/h 9.5 km/h 75% 0.0 mm CLR
07:49 20.4 °C 15.6 °C 1012.0 hPa SSW 6.9 km/h 13.0 km/h 74% 0.0 mm CLR
07:54 20.5 °C 15.5 °C 1012.0 hPa SSW 6.9 km/h 11.9 km/h 73% 0.0 mm CLR
07:59 20.5 °C 15.5 °C 1012.0 hPa SW 8.7 km/h 13.0 km/h 73% 0.0 mm CLR
08:04 20.6 °C 15.4 °C 1012.1 hPa WSW 8.7 km/h 9.3 km/h 72% 0.0 mm CLR
08:09 20.7 °C 15.4 °C 1012.1 hPa WSW 6.9 km/h 11.1 km/h 72% 0.0 mm CLR
08:14 20.9 °C 15.7 °C 1012.1 hPa West 6.9 km/h 11.1 km/h 72% 0.0 mm CLR
08:19 20.9 °C 15.4 °C 1012.2 hPa WSW 6.9 km/h 13.0 km/h 71% 0.0 mm CLR
08:24 21.1 °C 15.4 °C 1012.2 hPa SW 6.9 km/h 9.5 km/h 70% 0.0 mm CLR
08:29 21.3 °C 15.4 °C 1012.2 hPa SSW 6.9 km/h 7.4 km/h 69% 0.0 mm CLR
08:34 21.6 °C 15.4 °C 1012.2 hPa WSW 6.9 km/h 11.1 km/h 68% 0.0 mm CLR
08:39 21.7 °C 15.3 °C 1012.2 hPa West 6.4 km/h 7.4 km/h 67% 0.0 mm CLR
08:44 21.9 °C 15.0 °C 1012.2 hPa WSW 6.4 km/h 11.1 km/h 65% 0.0 mm CLR
08:49 22.2 °C 14.8 °C 1012.2 hPa WSW 7.6 km/h 11.1 km/h 63% 0.0 mm CLR
08:54 22.5 °C 14.8 °C 1012.2 hPa WSW 7.6 km/h 11.1 km/h 62% 0.0 mm CLR
08:59 22.8 °C 14.9 °C 1012.2 hPa SSW 6.9 km/h 7.4 km/h 61% 0.0 mm CLR
09:04 23.2 °C 14.7 °C 1012.2 hPa South 6.9 km/h 7.4 km/h 59% 0.0 mm CLR
09:09 23.4 °C 14.7 °C 1012.2 hPa SSW 5.8 km/h 13.0 km/h 58% 0.0 mm CLR
09:14 23.7 °C 14.1 °C 1012.2 hPa SW 5.8 km/h 11.1 km/h 55% 0.0 mm CLR
09:19 24.0 °C 14.4 °C 1012.1 hPa SSW 8.4 km/h 8.4 km/h 55% 0.0 mm CLR
09:24 24.3 °C 13.8 °C 1012.1 hPa SSW 8.4 km/h 11.1 km/h 52% 0.0 mm CLR
09:29 24.6 °C 14.4 °C 1012.1 hPa SW 8.4 km/h 11.1 km/h 53% 0.0 mm CLR
09:34 24.7 °C 13.6 °C 1012.1 hPa SW 8.4 km/h 14.8 km/h 50% 0.0 mm CLR
09:39 24.9 °C 14.1 °C 1012.1 hPa SSW 8.7 km/h 11.1 km/h 51% 0.0 mm CLR
09:44 25.1 °C 13.6 °C 1012.1 hPa West 8.7 km/h 9.3 km/h 49% 0.0 mm CLR
09:49 25.3 °C 13.5 °C 1012.1 hPa South 6.4 km/h 11.1 km/h 48% 0.0 mm CLR
09:54 25.4 °C 12.6 °C 1012.1 hPa SW 6.4 km/h 13.0 km/h 45% 0.0 mm CLR
09:59 25.5 °C 12.7 °C 1012.1 hPa WSW 7.6 km/h 9.3 km/h 45% 0.0 mm CLR
10:04 25.7 °C 12.9 °C 1012.2 hPa SW 7.6 km/h 7.4 km/h 45% 0.0 mm CLR
10:09 25.8 °C 12.9 °C 1012.2 hPa SSW 6.4 km/h 11.1 km/h 45% 0.0 mm CLR
10:14 25.9 °C 13.1 °C 1012.2 hPa SW 6.4 km/h 11.1 km/h 45% 0.0 mm CLR
10:19 26.0 °C 12.8 °C 1012.1 hPa WSW 8.4 km/h 13.0 km/h 44% 0.0 mm CLR
10:24 26.2 °C 13.0 °C 1012.1 hPa WSW 8.4 km/h 16.7 km/h 44% 0.0 mm CLR
10:29 26.5 °C 13.3 °C 1012.1 hPa SSW 6.9 km/h 13.0 km/h 44% 0.0 mm CLR
10:34 26.8 °C 12.8 °C 1012.0 hPa SW 6.9 km/h 18.5 km/h 42% 0.0 mm CLR
10:39 26.9 °C 12.9 °C 1012.0 hPa WSW 9.5 km/h 11.1 km/h 42% 0.0 mm CLR
10:44 27.2 °C 12.4 °C 1012.0 hPa WSW 9.5 km/h 14.8 km/h 40% 0.0 mm CLR
10:49 27.3 °C 12.1 °C 1011.9 hPa West 8.4 km/h 11.1 km/h 39% 0.0 mm CLR
10:54 27.6 °C 12.4 °C 1011.9 hPa SW 8.4 km/h 9.3 km/h 39% 0.0 mm CLR
10:59 27.8 °C 12.6 °C 1011.9 hPa SW 7.6 km/h 7.6 km/h 39% 0.0 mm CLR
11:04 28.1 °C 12.4 °C 1011.8 hPa WSW 7.6 km/h 14.8 km/h 38% 0.0 mm CLR
11:09 28.2 °C 12.6 °C 1011.8 hPa South 7.6 km/h 9.3 km/h 38% 0.0 mm CLR
11:14 28.4 °C 12.3 °C 1011.8 hPa WNW 7.6 km/h 11.1 km/h 37% 0.0 mm CLR
11:19 28.7 °C 12.2 °C 1011.6 hPa WNW 6.9 km/h 11.1 km/h 36% 0.0 mm CLR
11:24 28.9 °C 12.3 °C 1011.6 hPa ESE 6.9 km/h 13.0 km/h 36% 0.0 mm CLR
11:29 29.1 °C 12.1 °C 1011.6 hPa WNW 6.4 km/h 7.6 km/h 35% 0.0 mm CLR
11:34 29.2 °C 12.2 °C 1011.6 hPa SW 6.4 km/h 5.6 km/h 35% 0.0 mm CLR
11:39 29.4 °C 11.9 °C 1011.6 hPa SW 5.8 km/h 15.6 km/h 34% 0.0 mm CLR
11:44 29.3 °C 11.8 °C 1011.6 hPa WSW 5.8 km/h 5.6 km/h 34% 0.0 mm CLR
11:49 29.6 °C 12.1 °C 1011.6 hPa NNE 5.8 km/h 7.4 km/h 34% 0.0 mm CLR
11:54 29.9 °C 11.9 °C 1011.6 hPa West 5.8 km/h 7.4 km/h 33% 0.0 mm CLR
11:59 30.1 °C 12.1 °C 1011.6 hPa WSW 4.7 km/h 11.1 km/h 33% 0.0 mm CLR
12:04 30.2 °C 11.7 °C 1011.5 hPa SSW 4.7 km/h 11.1 km/h 32% 0.0 mm CLR
12:09 30.4 °C 11.4 °C 1011.5 hPa WSW 9.5 km/h 16.7 km/h 31% 0.0 mm CLR
12:14 30.5 °C 11.4 °C 1011.5 hPa SSW 9.5 km/h 9.3 km/h 31% 0.0 mm CLR
12:19 30.6 °C 11.6 °C 1011.5 hPa SW 8.4 km/h 13.0 km/h 31% 0.0 mm CLR
12:24 30.6 °C 11.6 °C 1011.5 hPa South 8.4 km/h 16.7 km/h 31% 0.0 mm CLR
12:29 30.7 °C 11.1 °C 1011.5 hPa SW 10.3 km/h 18.5 km/h 30% 0.0 mm CLR
12:34 30.6 °C 11.1 °C 1011.5 hPa SW 10.3 km/h 13.0 km/h 30% 0.0 mm CLR
12:39 30.7 °C 11.1 °C 1011.5 hPa WSW 10.0 km/h 11.1 km/h 30% 0.0 mm CLR
12:44 30.8 °C 11.2 °C 1011.5 hPa SW 10.0 km/h 11.1 km/h 30% 0.0 mm CLR
12:49 31.0 °C 11.4 °C 1011.5 hPa SW 7.6 km/h 9.3 km/h 30% 0.0 mm CLR
12:54 31.1 °C 10.9 °C 1011.5 hPa West 7.6 km/h 3.7 km/h 29% 0.0 mm CLR
12:59 31.5 °C 11.3 °C 1011.5 hPa SSE 3.9 km/h 9.3 km/h 29% 0.0 mm CLR
13:04 31.6 °C 11.4 °C 1011.4 hPa SE 3.9 km/h 7.4 km/h 29% 0.0 mm CLR
13:09 31.6 °C 10.9 °C 1011.4 hPa NW 6.9 km/h 11.1 km/h 28% 0.0 mm CLR
13:14 31.6 °C 10.9 °C 1011.4 hPa WSW 6.9 km/h 13.0 km/h 28% 0.0 mm CLR
13:19 31.9 °C 11.1 °C 1011.3 hPa WSW 6.4 km/h 7.4 km/h 28% 0.0 mm CLR
13:24 31.9 °C 11.1 °C 1011.3 hPa South 6.4 km/h 14.8 km/h 28% 0.0 mm CLR
13:29 31.9 °C 11.1 °C 1011.3 hPa SW 8.4 km/h 16.7 km/h 28% 0.0 mm CLR
13:34 31.8 °C 11.1 °C 1011.1 hPa ESE 8.4 km/h 11.1 km/h 28% 0.0 mm CLR
13:39 31.8 °C 11.1 °C 1011.1 hPa SE 8.4 km/h 11.1 km/h 28% 0.0 mm CLR
13:44 31.9 °C 11.1 °C 1011.1 hPa SE 8.4 km/h 9.3 km/h 28% 0.0 mm CLR
13:49 31.9 °C 10.6 °C 1011.0 hPa ESE 6.4 km/h 7.4 km/h 27% 0.0 mm CLR
13:54 32.2 °C 10.8 °C 1011.0 hPa SW 6.4 km/h 9.3 km/h 27% 0.0 mm CLR
13:59 32.2 °C 10.8 °C 1011.0 hPa East 4.7 km/h 8.7 km/h 27% 0.0 mm CLR
14:04 32.3 °C 10.9 °C 1010.8 hPa WNW 4.7 km/h 5.6 km/h 27% 0.0 mm CLR
14:09 32.7 °C 11.3 °C 1010.8 hPa WNW 5.8 km/h 9.3 km/h 27% 0.0 mm CLR
14:14 32.9 °C 11.4 °C 1010.8 hPa West 5.8 km/h 9.5 km/h 27% 0.0 mm CLR
14:19 33.1 °C 11.0 °C 1010.6 hPa SE 5.0 km/h 11.9 km/h 26% 0.0 mm CLR
14:24 33.0 °C 10.9 °C 1010.6 hPa WNW 5.0 km/h 11.1 km/h 26% 0.0 mm CLR
14:29 32.9 °C 10.8 °C 1010.6 hPa SSW 6.9 km/h 3.9 km/h 26% 0.0 mm CLR
14:34 33.2 °C 12.2 °C 1010.4 hPa East 6.9 km/h 14.8 km/h 28% 0.0 mm CLR
14:39 33.3 °C 12.8 °C 1010.4 hPa ESE 8.7 km/h 24.5 km/h 29% 0.0 mm CLR
14:44 32.9 °C 12.5 °C 1010.4 hPa SSW 8.7 km/h 20.4 km/h 29% 0.0 mm CLR
14:49 32.9 °C 13.1 °C 1010.2 hPa SE 15.6 km/h 18.3 km/h 30% 0.0 mm CLR
14:54 33.0 °C 12.6 °C 1010.2 hPa South 15.6 km/h 14.8 km/h 29% 0.0 mm CLR
14:59 32.9 °C 12.5 °C 1010.2 hPa SE 13.0 km/h 25.6 km/h 29% 0.0 mm CLR
15:04 32.8 °C 12.9 °C 1010.1 hPa SE 13.0 km/h 27.8 km/h 30% 0.0 mm CLR
15:09 32.8 °C 12.4 °C 1010.1 hPa ENE 18.0 km/h 24.1 km/h 29% 0.0 mm CLR
15:14 32.8 °C 12.9 °C 1010.1 hPa ESE 18.0 km/h 29.6 km/h 30% 0.0 mm CLR
15:19 32.8 °C 12.9 °C 1009.9 hPa East 16.4 km/h 20.4 km/h 30% 0.0 mm CLR
15:24 32.9 °C 12.5 °C 1009.9 hPa SE 16.4 km/h 27.8 km/h 29% 0.0 mm CLR
15:29 33.1 °C 12.2 °C 1009.9 hPa ESE 16.1 km/h 29.6 km/h 28% 0.0 mm CLR
15:34 33.1 °C 11.6 °C 1010.0 hPa SSW 16.1 km/h 22.2 km/h 27% 0.0 mm CLR
15:39 33.2 °C 11.7 °C 1010.0 hPa SSE 14.8 km/h 25.9 km/h 27% 0.0 mm CLR
15:44 33.2 °C 11.7 °C 1010.0 hPa East 14.8 km/h 25.9 km/h 27% 0.0 mm CLR
15:49 33.2 °C 11.7 °C 1009.7 hPa SE 16.1 km/h 27.4 km/h 27% 0.0 mm CLR
15:54 33.3 °C 11.2 °C 1009.7 hPa SE 16.1 km/h 24.5 km/h 26% 0.0 mm CLR
15:59 33.1 °C 11.0 °C 1009.7 hPa SE 18.0 km/h 31.5 km/h 26% 0.0 mm CLR
16:04 33.1 °C 11.0 °C 1009.5 hPa SE 18.0 km/h 27.8 km/h 26% 0.0 mm CLR
16:09 33.3 °C 10.6 °C 1009.5 hPa South 18.0 km/h 22.2 km/h 25% 0.0 mm CLR
16:14 33.4 °C 10.7 °C 1009.5 hPa SE 18.0 km/h 22.2 km/h 25% 0.0 mm CLR
16:19 33.4 °C 10.7 °C 1009.5 hPa ESE 16.1 km/h 22.2 km/h 25% 0.0 mm CLR
16:24 33.3 °C 10.6 °C 1009.5 hPa SE 16.1 km/h 24.1 km/h 25% 0.0 mm CLR
16:29 33.1 °C 10.4 °C 1009.5 hPa East 16.1 km/h 27.8 km/h 25% 0.0 mm CLR
16:34 32.9 °C 10.3 °C 1009.3 hPa ESE 16.1 km/h 32.3 km/h 25% 0.0 mm CLR
16:39 32.9 °C 10.3 °C 1009.3 hPa SE 16.1 km/h 18.5 km/h 25% 0.0 mm CLR
16:44 33.1 °C 10.4 °C 1009.3 hPa SE 19.8 km/h 25.9 km/h 25% 0.0 mm CLR
16:49 32.9 °C 10.3 °C 1009.3 hPa SSE 17.2 km/h 29.6 km/h 25% 0.0 mm CLR
16:54 32.9 °C 10.3 °C 1009.3 hPa ESE 17.2 km/h 24.1 km/h 25% 0.0 mm CLR
16:59 32.9 °C 10.3 °C 1009.3 hPa SE 16.1 km/h 24.1 km/h 25% 0.0 mm CLR
17:04 32.9 °C 10.3 °C 1009.3 hPa ESE 16.1 km/h 24.1 km/h 25% 0.0 mm CLR
17:09 33.2 °C 9.9 °C 1009.3 hPa ESE 15.6 km/h 24.1 km/h 24% 0.0 mm CLR
17:14 33.1 °C 9.8 °C 1009.3 hPa ESE 15.6 km/h 24.1 km/h 24% 0.0 mm CLR
17:19 32.9 °C 10.3 °C 1009.2 hPa ESE 16.1 km/h 25.9 km/h 25% 0.0 mm CLR
17:24 33.0 °C 9.7 °C 1009.2 hPa ESE 16.1 km/h 20.4 km/h 24% 0.0 mm CLR
17:29 32.9 °C 9.7 °C 1009.2 hPa SE 14.8 km/h 25.9 km/h 24% 0.0 mm CLR
17:34 32.8 °C 9.6 °C 1009.1 hPa ESE 14.8 km/h 25.9 km/h 24% 0.0 mm CLR
17:39 32.6 °C 8.8 °C 1009.1 hPa ESE 17.2 km/h 31.5 km/h 23% 0.0 mm CLR
17:44 32.4 °C 8.6 °C 1009.1 hPa ESE 17.2 km/h 27.8 km/h 23% 0.0 mm CLR
17:49 32.7 °C 8.8 °C 1009.0 hPa ESE 16.4 km/h 20.4 km/h 23% 0.0 mm CLR
17:54 32.8 °C 8.9 °C 1009.0 hPa ESE 16.4 km/h 24.1 km/h 23% 0.0 mm CLR
17:59 32.6 °C 9.4 °C 1009.0 hPa East 17.2 km/h 27.8 km/h 24% 0.0 mm CLR
18:04 32.3 °C 9.2 °C 1008.9 hPa East 17.2 km/h 22.2 km/h 24% 0.0 mm CLR
18:09 32.5 °C 9.9 °C 1008.9 hPa ESE 18.0 km/h 22.2 km/h 25% 0.0 mm CLR
18:14 32.4 °C 9.2 °C 1008.9 hPa SE 18.0 km/h 20.4 km/h 24% 0.0 mm CLR
18:19 32.3 °C 9.2 °C 1008.8 hPa East 18.0 km/h 20.4 km/h 24% 0.0 mm CLR
18:24 32.4 °C 9.2 °C 1008.8 hPa East 18.0 km/h 24.1 km/h 24% 0.0 mm CLR
18:29 32.3 °C 8.5 °C 1008.8 hPa ESE 14.0 km/h 25.9 km/h 23% 0.0 mm CLR
18:34 32.2 °C 9.1 °C 1008.8 hPa East 14.0 km/h 20.4 km/h 24% 0.0 mm CLR
18:39 32.1 °C 9.0 °C 1008.8 hPa East 17.2 km/h 19.0 km/h 24% 0.0 mm CLR
18:44 32.2 °C 9.1 °C 1008.8 hPa East 17.2 km/h 14.8 km/h 24% 0.0 mm CLR
18:49 32.2 °C 9.1 °C 1008.8 hPa SE 13.0 km/h 20.4 km/h 24% 0.0 mm CLR
18:54 32.2 °C 8.4 °C 1008.8 hPa ESE 13.0 km/h 24.1 km/h 23% 0.0 mm CLR
18:59 32.0 °C 8.9 °C 1008.8 hPa ESE 14.8 km/h 16.7 km/h 24% 0.0 mm CLR
19:04 31.9 °C 8.8 °C 1008.9 hPa SE 14.8 km/h 18.5 km/h 24% 0.0 mm CLR
19:09 31.9 °C 8.8 °C 1008.9 hPa NE 11.9 km/h 14.0 km/h 24% 0.0 mm CLR
19:14 31.9 °C 8.8 °C 1008.9 hPa East 11.9 km/h 14.8 km/h 24% 0.0 mm CLR
19:19 31.8 °C 8.7 °C 1008.9 hPa ESE 12.2 km/h 20.4 km/h 24% 0.0 mm CLR
19:24 31.7 °C 9.3 °C 1008.9 hPa ESE 12.2 km/h 25.9 km/h 25% 0.0 mm CLR
19:29 31.6 °C 9.2 °C 1008.9 hPa SE 14.8 km/h 21.7 km/h 25% 0.0 mm CLR
19:34 31.5 °C 9.1 °C 1008.8 hPa East 14.8 km/h 16.7 km/h 25% 0.0 mm CLR
19:39 31.4 °C 9.6 °C 1008.8 hPa ESE 13.0 km/h 22.2 km/h 26% 0.0 mm CLR
19:44 31.3 °C 9.5 °C 1008.8 hPa ESE 13.0 km/h 17.2 km/h 26% 0.0 mm CLR
19:49 31.4 °C 9.6 °C 1008.8 hPa NE 12.2 km/h 18.5 km/h 26% 0.0 mm CLR
19:54 31.3 °C 9.5 °C 1008.8 hPa ESE 12.2 km/h 14.8 km/h 26% 0.0 mm CLR
19:59 31.3 °C 10.1 °C 1008.8 hPa ESE 12.2 km/h 16.7 km/h 27% 0.0 mm CLR
20:04 31.3 °C 10.1 °C 1008.8 hPa East 12.2 km/h 16.7 km/h 27% 0.0 mm CLR
20:09 31.2 °C 10.0 °C 1008.8 hPa ESE 10.3 km/h 11.9 km/h 27% 0.0 mm CLR
20:14 31.3 °C 10.1 °C 1008.8 hPa ESE 10.3 km/h 11.1 km/h 27% 0.0 mm CLR
20:19 31.2 °C 10.0 °C 1008.7 hPa ESE 7.6 km/h 11.1 km/h 27% 0.0 mm CLR
20:24 31.1 °C 10.4 °C 1008.7 hPa SE 7.6 km/h 14.8 km/h 28% 0.0 mm CLR
20:29 31.0 °C 10.3 °C 1008.7 hPa ESE 8.7 km/h 11.1 km/h 28% 0.0 mm CLR
20:34 31.0 °C 10.3 °C 1008.8 hPa East 8.7 km/h 9.3 km/h 28% 0.0 mm CLR
20:39 30.9 °C 10.8 °C 1008.8 hPa ENE 5.8 km/h 9.3 km/h 29% 0.0 mm CLR
20:44 30.9 °C 11.3 °C 1008.8 hPa ESE 5.8 km/h 9.3 km/h 30% 0.0 mm CLR
20:49 30.8 °C 11.2 °C 1008.8 hPa ENE 6.4 km/h 11.1 km/h 30% 0.0 mm CLR
20:54 30.7 °C 11.1 °C 1008.8 hPa NNE 6.4 km/h 5.6 km/h 30% 0.0 mm CLR
20:59 30.7 °C 11.6 °C 1008.8 hPa ENE 3.9 km/h 8.4 km/h 31% 0.0 mm CLR
21:04 30.6 °C 12.0 °C 1008.9 hPa NE 3.9 km/h 9.3 km/h 32% 0.0 mm CLR
21:09 30.2 °C 12.6 °C 1008.9 hPa East 5.8 km/h 9.3 km/h 34% 0.0 mm CLR
21:14 30.0 °C 12.9 °C 1008.9 hPa North 5.8 km/h 5.6 km/h 35% 0.0 mm CLR
21:19 29.8 °C 13.1 °C 1008.8 hPa NE 5.8 km/h 11.1 km/h 36% 0.0 mm CLR
21:24 29.6 °C 12.9 °C 1008.8 hPa NE 5.8 km/h 10.3 km/h 36% 0.0 mm CLR
21:29 29.4 °C 13.2 °C 1008.8 hPa NE 8.4 km/h 9.5 km/h 37% 0.0 mm CLR
21:34 29.3 °C 13.5 °C 1008.9 hPa NE 8.4 km/h 9.3 km/h 38% 0.0 mm CLR
21:39 29.1 °C 12.1 °C 1008.9 hPa NNE 6.9 km/h 8.4 km/h 35% 0.0 mm CLR
21:44 28.9 °C 12.3 °C 1008.9 hPa NE 6.9 km/h 9.3 km/h 36% 0.0 mm CLR
21:49 28.8 °C 12.2 °C 1008.9 hPa NE 6.9 km/h 7.4 km/h 36% 0.0 mm CLR
21:54 28.6 °C 12.5 °C 1008.9 hPa NE 6.9 km/h 11.1 km/h 37% 0.0 mm CLR
21:59 28.4 °C 12.7 °C 1008.9 hPa ENE 6.4 km/h 9.3 km/h 38% 0.0 mm CLR
22:04 28.2 °C 12.9 °C 1009.1 hPa NNE 6.4 km/h 7.4 km/h 39% 0.0 mm CLR
22:09 28.1 °C 13.6 °C 1009.1 hPa NE 6.4 km/h 14.8 km/h 41% 0.0 mm CLR
22:14 27.6 °C 13.6 °C 1009.1 hPa NE 6.4 km/h 14.0 km/h 42% 0.0 mm CLR
22:19 27.0 °C 14.4 °C 1009.4 hPa NNE 10.0 km/h 16.7 km/h 46% 0.0 mm CLR
22:24 26.5 °C 15.6 °C 1009.4 hPa North 10.0 km/h 13.0 km/h 51% 0.0 mm CLR
22:29 26.0 °C 15.7 °C 1009.4 hPa ENE 10.0 km/h 13.7 km/h 53% 0.0 mm CLR
22:34 25.5 °C 16.3 °C 1009.6 hPa NE 10.0 km/h 14.8 km/h 57% 0.0 mm CLR
22:39 25.2 °C 16.9 °C 1009.6 hPa NNE 11.1 km/h 18.5 km/h 60% 0.0 mm CLR
22:44 25.0 °C 16.9 °C 1009.6 hPa NNE 11.1 km/h 14.8 km/h 61% 0.0 mm CLR
22:49 24.8 °C 17.0 °C 1009.8 hPa NE 9.5 km/h 13.0 km/h 62% 0.0 mm CLR
22:54 24.8 °C 17.3 °C 1009.8 hPa NE 9.5 km/h 13.0 km/h 63% 0.0 mm CLR
22:59 24.7 °C 17.2 °C 1009.8 hPa NE 8.4 km/h 9.3 km/h 63% 0.0 mm CLR
23:04 24.7 °C 17.4 °C 1010.0 hPa NNE 8.4 km/h 9.3 km/h 64% 0.0 mm CLR
23:09 24.7 °C 17.4 °C 1010.0 hPa NNE 6.4 km/h 13.0 km/h 64% 0.0 mm CLR
23:14 24.6 °C 17.6 °C 1010.0 hPa North 6.4 km/h 14.8 km/h 65% 0.0 mm CLR
23:19 24.4 °C 17.6 °C 1010.0 hPa NE 7.6 km/h 6.9 km/h 66% 0.0 mm CLR
23:24 24.3 °C 17.8 °C 1010.0 hPa NNE 7.6 km/h 11.1 km/h 67% 0.0 mm CLR
23:29 24.2 °C 17.7 °C 1010.0 hPa NE 6.9 km/h 7.4 km/h 67% 0.0 mm CLR
23:34 24.2 °C 17.9 °C 1010.2 hPa NE 6.9 km/h 7.4 km/h 68% 0.0 mm CLR
23:39 24.1 °C 18.1 °C 1010.2 hPa NE 4.7 km/h 8.7 km/h 69% 0.0 mm CLR
23:44 24.0 °C 17.9 °C 1010.2 hPa NE 4.7 km/h 7.4 km/h 69% 0.0 mm CLR
23:49 23.9 °C 17.9 °C 1010.2 hPa North 4.7 km/h 7.4 km/h 69% 0.0 mm CLR
23:54 23.9 °C 17.9 °C 1010.2 hPa NE 4.7 km/h 7.4 km/h 69% 0.0 mm CLR
23:59 23.8 °C 18.0 °C 1010.2 hPa North 3.9 km/h 7.6 km/h 70% 0.0 mm CLR
Murcia-Puente Tocinos, España
Compliments of Weather Underground - 2.75 mb

La estación de MeteoMurcia.com, publica sus datos en los siguientes proyectos:

Weather Underground PWS IMURCIAP2 Meteoclimatic www.awekas.at

W3Counter
Web Analytics